This is the latest recevied weather packets stored in our database for station/object K7LDN-13. If no packets are shown the sender has not sent any weather packets the latest 10 day(s).
| Time | Temp. | Humidity | Pressure | Rain* | Wind** | Luminosity | Snow |
|---|---|---|---|---|---|---|---|
| 1777915595 | 20.56° C | 32% | 1012.4 hPa | 0 mm | - | 792 W/m² | - |
| 1777915291 | 20.56° C | 32% | 1012.3 hPa | 0 mm | - | 779 W/m² | - |
| 1777914988 | 20.56° C | 33% | 1012.4 hPa | 0 mm | - | 766 W/m² | - |
| 1777914685 | 20.56° C | 33% | 1012.4 hPa | 0 mm | - | 752 W/m² | - |
| 1777914381 | 20° C | 34% | 1012.7 hPa | 0 mm | - | 741 W/m² | - |
| 1777914079 | 20.56° C | 32% | 1012.6 hPa | 0 mm | - | 68 W/m² | - |
| 1777913775 | 20° C | 32% | 1012.5 hPa | 0 mm | - | 709 W/m² | - |
| 1777913471 | 20° C | 33% | 1012.6 hPa | 0 mm | - | 702 W/m² | - |
| 1777913168 | 20° C | 34% | 1012.6 hPa | 0 mm | - | 690 W/m² | - |
| 1777912864 | 20° C | 34% | 1012.7 hPa | 0 mm | - | 679 W/m² | - |
| 1777912561 | 19.44° C | 35% | 1012.7 hPa | 0 mm | - | 667 W/m² | - |
| 1777912257 | 19.44° C | 34% | 1012.7 hPa | 0 mm | - | 650 W/m² | - |
| 1777911953 | 19.44° C | 35% | 1012.6 hPa | 0 mm | - | 630 W/m² | - |
| 1777911649 | 18.89° C | 37% | 1012.7 hPa | 0 mm | - | 601 W/m² | - |
| 1777911346 | 18.89° C | 39% | 1012.6 hPa | 0 mm | - | 568 W/m² | - |
| 1777911044 | 18.33° C | 39% | 1012.6 hPa | 0 mm | - | 438 W/m² | - |
| 1777910741 | 18.33° C | 40% | 1012.7 hPa | 0 mm | - | 517 W/m² | - |
| 1777910437 | 17.78° C | 42% | 1012.7 hPa | 0 mm | - | 420 W/m² | - |
| 1777910134 | 17.78° C | 44% | 1012.8 hPa | 0 mm | - | 201 W/m² | - |
| 1777909832 | 17.22° C | 43% | 1012.8 hPa | 0 mm | - | 196 W/m² | - |
| 1777909528 | 17.22° C | 43% | 1012.8 hPa | 0 mm | - | 391 W/m² | - |
| 1777909225 | 17.78° C | 43% | 1012.8 hPa | 0 mm | - | 196 W/m² | - |
| 1777908923 | 18.89° C | 42% | 1012.7 hPa | 0 mm | - | 528 W/m² | - |
| 1777908622 | 18.33° C | 43% | 1012.8 hPa | 0 mm | - | 523 W/m² | - |
| 1777908318 | 18.33° C | 38% | 1013 hPa | 0 mm | - | 505 W/m² | - |
* Rain latest hour (hover to see other rain measurements)
** Current wind speed in m/s (hover to see current wind gust speed)